Adana, Turkey

5:41 AM +03 on May 28, 2018 (GMT +0300)
Adana

Weather History for LTAF - May, 2013

Change the Weather History Date:

Wednesday, May 15, 2013

  Actual Average Record
Temperature  
Mean Temperature 68 °F -  
Max Temperature 75 °F 84 °F 89 °F (1997)
Min Temperature 60 °F 63 °F 53 °F (2005)
Cooling Degree Days 2    
Growing Degree Days 18 (Base 50)    
Moisture  
Dew Point 55 °F    
Average Humidity 66    
Maximum Humidity 82    
Minimum Humidity 44    
Precipitation  
Precipitation 0.00 in 0.05 in - ()
Sea Level Pressure  
Sea Level Pressure 29.78 in    
Wind  
Wind Speed 5 mph ()    
Max Wind Speed 16 mph    
Max Gust Speed -    
Visibility 4.9 miles    
Events Rain , Thunderstorm    
Averages and records for this station are not official NWS values.
T = Trace of Precipitation, MM = Missing Value Source: Averaged Metar Reports

Daily Weather History Graph

Daily Weather History Graph

Search for Another Location

Airport or City:

Astronomy

May. 15, 2013 Rise Set
Actual Time 5:30 AM EEST 7:39 PM EEST
Civil Twilight 5:01 AM EEST 8:08 PM EEST
Nautical Twilight 4:26 AM EEST 8:44 PM EEST
Astronomical Twilight 3:48 AM EEST 9:23 PM EEST
Moon 9:46 AM EEST (5/15) 11:51 PM EEST (5/15)
Length of Visible Light 15h 07m
Length of Day
14h 09m
Waxing Crescent, 24% of the Moon is Illuminated
May 15
Waxing Crescent
May 18
First Quarter
May 25
Full
May 31
Last Quarter
Jun 8
New

Hourly Weather History & Observations

Time (EEST) Temp. Dew Point Humidity Pressure Visibility Wind Dir Wind Speed Gust Speed Precip Events Conditions
12:20 AM 60.8 °F 55.4 °F 82% 29.77 in 3.1 mi SE 4.6 mph - N/A   Mostly Cloudy
12:50 AM 60.8 °F 53.6 °F 77% 29.77 in 3.1 mi East 3.5 mph - N/A   Mostly Cloudy
1:20 AM 60.8 °F 53.6 °F 77% 29.74 in 3.1 mi Variable 2.3 mph - N/A   Mostly Cloudy
1:50 AM 60.8 °F 53.6 °F 77% 29.74 in 3.1 mi NE 3.5 mph - N/A   Mostly Cloudy
2:20 AM 60.8 °F 53.6 °F 77% 29.74 in 3.1 mi NNE 4.6 mph - N/A   Mostly Cloudy
2:50 AM 60.8 °F 55.4 °F 82% 29.74 in 3.1 mi North 4.6 mph - N/A   Mostly Cloudy
3:20 AM 60.8 °F 55.4 °F 82% 29.74 in 3.1 mi Variable 2.3 mph - N/A   Mostly Cloudy
3:50 AM 60.8 °F 55.4 °F 82% 29.74 in 3.1 mi Variable 2.3 mph - N/A   Mostly Cloudy
4:20 AM 60.8 °F 55.4 °F 82% 29.74 in 3.1 mi NNW 4.6 mph - N/A   Mostly Cloudy
4:50 AM 60.8 °F 55.4 °F 82% 29.74 in 3.1 mi North 4.6 mph - N/A   Mostly Cloudy
5:20 AM 60.8 °F 55.4 °F 82% 29.74 in 3.1 mi NNW 4.6 mph - N/A   Mostly Cloudy
5:50 AM 60.8 °F 55.4 °F 82% 29.74 in 3.1 mi NNW 5.8 mph - N/A   Mostly Cloudy
6:20 AM 60.8 °F 55.4 °F 82% 29.74 in 3.1 mi North 4.6 mph - N/A   Scattered Clouds
6:50 AM 62.6 °F 57.2 °F 82% 29.74 in 3.1 mi Variable 2.3 mph - N/A   Scattered Clouds
7:20 AM 64.4 °F 55.4 °F 73% 29.74 in 3.1 mi ENE 3.5 mph - N/A   Scattered Clouds
7:50 AM 66.2 °F 55.4 °F 68% 29.77 in 3.1 mi NE 4.6 mph - N/A   Haze
8:20 AM 68.0 °F 55.4 °F 64% 29.77 in 3.1 mi Variable 2.3 mph - N/A   Haze
8:50 AM 68.0 °F 53.6 °F 60% 29.77 in 6.2 mi Variable 2.3 mph - N/A   Scattered Clouds
9:20 AM 69.8 °F 53.6 °F 56% 29.77 in 6.2 mi Variable 3.5 mph - N/A   Scattered Clouds
9:50 AM 69.8 °F 53.6 °F 56% 29.77 in 6.2 mi SSE 4.6 mph - N/A   Scattered Clouds
10:20 AM 69.8 °F 55.4 °F 60% 29.77 in 6.2 mi Variable 3.5 mph - N/A   Scattered Clouds
10:50 AM 71.6 °F 53.6 °F 53% 29.77 in 6.2 mi SE 6.9 mph - N/A   Scattered Clouds
11:20 AM 71.6 °F 53.6 °F 53% 29.77 in 6.2 mi Variable 4.6 mph - N/A   Scattered Clouds
11:50 AM 73.4 °F 51.8 °F 47% 29.77 in 6.2 mi South 6.9 mph - N/A   Mostly Cloudy
12:20 PM 75.2 °F 51.8 °F 44% 29.77 in 6.2 mi SE 5.8 mph - N/A   Scattered Clouds
12:50 PM 75.2 °F 51.8 °F 44% 29.77 in 6.2 mi South 6.9 mph - N/A   Scattered Clouds
1:20 PM 73.4 °F 55.4 °F 53% 29.77 in 6.2 mi South 11.5 mph - N/A   Mostly Cloudy
1:50 PM 73.4 °F 55.4 °F 53% 29.77 in 6.2 mi SSW 12.7 mph - N/A   Scattered Clouds
2:20 PM 73.4 °F 55.4 °F 53% 29.77 in 6.2 mi SSW 11.5 mph - N/A   Scattered Clouds
2:43 PM 73.4 °F 55.4 °F 53% 29.77 in 6.2 mi South 10.4 mph - N/A Thunderstorm Thunderstorm
2:50 PM 75.2 °F 55.4 °F 50% 29.77 in 6.2 mi South 11.5 mph - N/A Thunderstorm Thunderstorm
3:20 PM 73.4 °F 57.2 °F 57% 29.77 in 6.2 mi South 16.1 mph - N/A Thunderstorm Thunderstorm
3:50 PM 75.2 °F 55.4 °F 50% 29.77 in 6.2 mi SSW 16.1 mph - N/A Thunderstorm Thunderstorm
4:20 PM 73.4 °F 53.6 °F 50% 29.77 in 6.2 mi SSW 12.7 mph - N/A Thunderstorm Thunderstorm
4:50 PM 73.4 °F 55.4 °F 53% 29.77 in 6.2 mi SW 13.8 mph - N/A   Mostly Cloudy
5:20 PM 73.4 °F 55.4 °F 53% 29.77 in 6.2 mi SSW 11.5 mph - N/A   Mostly Cloudy
5:50 PM 73.4 °F 53.6 °F 50% 29.80 in 6.2 mi SSW 11.5 mph - N/A   Mostly Cloudy
6:20 PM 71.6 °F 53.6 °F 53% 29.80 in 6.2 mi SSW 11.5 mph - N/A   Mostly Cloudy
6:50 PM 69.8 °F 53.6 °F 56% 29.80 in 6.2 mi SSW 9.2 mph - N/A   Mostly Cloudy
7:16 PM 69.8 °F 55.4 °F 60% 29.83 in 6.2 mi SW 6.9 mph - N/A Rain Light Rain Showers
7:20 PM 69.8 °F 55.4 °F 60% 29.83 in 6.2 mi SW 5.8 mph - N/A Rain Light Rain Showers
7:50 PM 68.0 °F 55.4 °F 64% 29.83 in 6.2 mi SW 4.6 mph - N/A   Mostly Cloudy
8:20 PM 68.0 °F 57.2 °F 68% 29.83 in 6.2 mi WSW 4.6 mph - N/A   Mostly Cloudy
8:50 PM 66.2 °F 57.2 °F 73% 29.83 in 6.2 mi West 6.9 mph - N/A   Mostly Cloudy
9:20 PM 64.4 °F 57.2 °F 77% 29.86 in 6.2 mi West 4.6 mph - N/A   Scattered Clouds
9:50 PM 64.4 °F 57.2 °F 77% 29.86 in 6.2 mi Calm Calm - N/A   Mostly Cloudy
10:20 PM 64.4 °F 57.2 °F 77% 29.86 in 3.1 mi ENE 6.9 mph - N/A   Mostly Cloudy
10:50 PM 62.6 °F 55.4 °F 77% 29.86 in 3.1 mi ENE 4.6 mph - N/A   Mostly Cloudy
11:20 PM 64.4 °F 57.2 °F 77% 29.86 in 3.1 mi ENE 6.9 mph - N/A   Mostly Cloudy
11:50 PM 62.6 °F 57.2 °F 82% 29.86 in 3.1 mi NE 5.8 mph - N/A   Mostly Cloudy